Location: Arnold
(38.6403°N, 100.0462°W)
Time: 09:40:04
(UTC-05:00)

OTV 5 (USA 277) - Visible Passes

Search period start: 15 October 2018 00:00
Search period end: 25 October 2018 00:00
Orbit: 387 x 394 km, 54.5° (Epoch: 08 September)

Date Brightness Start Highest point End Pass type
(mag) Time Alt. Az. Time Alt. Az. Time Alt. Az.
15 Oct ? 06:02:01 17° N 06:03:02 19° NNE 06:05:24 10° E visible
16 Oct ? 06:40:39 19° NW 06:42:45 74° NE 06:45:55 10° SE visible
17 Oct ? 05:47:00 28° ENE 05:47:00 28° ENE 05:49:10 10° ESE visible
17 Oct ? 07:19:38 10° WNW 07:22:03 20° SW 07:24:26 10° S visible
18 Oct ? 06:25:55 49° SW 06:25:55 49° SW 06:28:52 10° SSE visible
19 Oct ? 05:32:31 10° SE 05:32:31 10° SE 05:32:35 10° SE visible
21 Oct ? 20:10:32 10° SSE 20:10:50 11° SSE 20:10:50 11° SSE visible
22 Oct ? 20:48:26 10° SW 20:49:47 23° SW 20:49:47 23° SW visible
23 Oct ? 19:52:28 10° SSW 19:55:18 30° SE 19:56:08 26° E visible
24 Oct ? 20:31:35 10° WSW 20:34:40 48° NW 20:34:47 47° NNW visible
